Regional Weather Roundup
Issued by NWS Jackson, KY

Home | Current Version | Previous Version | Graphics & Text | Print | Product List | Glossary On
Versions: 1 2 3 4 5 6 7 8 9 10 11 12 13 14 15 16 17 18 19 20 21 22 23 24 25 26 27
000
ASUS43 KJKL 230210
RWRJKL

EAST KENTUCKY HOURLY WEATHER ROUNDUP
NATIONAL WEATHER SERVICE JACKSON KY
1000 PM EDT THU JUN 22 2017

NOTE: "FAIR" INDICATES FEW OR NO CLOUDS BELOW 12,000 FEET WITH
NO SIGNIFICANT WEATHER AND/OR OBSTRUCTIONS TO VISIBILITY.

* THESE REPORTS ARE NOT UNDER NWS QUALITY CONTROL AND MAY NOT
  REPORT WEATHER SUCH AS PRECIPITATION AND FOG.

KYZ079-080-083-085-087-088-110-112-115-119-120-230300
...EASTERN KENTUCKY...

CITY           SKY/WX    TMP DP  RH WIND       PRES   REMARKS
JACKSON        MOCLDY    69  67  93 VRB5      29.98R
LONDON         CLOUDY    71  67  87 CALM      29.97S
SOMERSET*      CLOUDY    70  70 100 S5        29.96S
MONTICELLO*    CLOUDY    74  71  91 VRB7      29.96S
WILLIAMSBURG*  MOCLDY    72  72 100 SE6       29.98S
MIDDLESBORO*   DRIZZLE   71  71 100 CALM      30.01R
HARLAN APT*    CLOUDY    70  66  88 CALM      30.02S
PIKE CO APT*   CLOUDY    68  68 100 SE5       30.00S
BIG SANDY APT* CLOUDY    71  71 100 SE6       29.99S
MOREHEAD APT*  LGT RAIN  70  68  94 CALM      29.97F VSB 1/4
$$

KYZ035-036-041-042-044-050-067-078-099-230300
...CENTRAL KENTUCKY...

CITY           SKY/WX    TMP DP  RH WIND       PRES   REMARKS
MT STERLING*   CLOUDY    70  70 100 S7        29.96F
FLEMING/MASON* HVY RAIN  69  68  99 S10       29.95F
DANVILLE*      CLOUDY    70  70 100 S6        29.94S
LEXINGTON      CLOUDY    71  68  90 S9        29.92F
FRANKFORT      CLOUDY    71  68  90 S8        29.89F
LOUISVILLE     MOCLDY    73  72  96 SE8       29.86F
LEBANON*         N/A     72  72 100 S8        29.91S
GLASGOW*       MOCLDY    75  75 100 S7        29.89R
BOWLING GREEN  CLOUDY    78  74  87 S13       29.87R
$$

KYZ091>093-OHZ055-061-077-WVZ005-015-034-035-042-230300
...SOUTHERN OHIO/WEST VIRGINIA...

CITY           SKY/WX    TMP DP  RH WIND       PRES   REMARKS
COVINGTON      LGT RAIN  70  69  97 S14       29.89S
COLUMBUS       CLOUDY    77  68  73 S12       29.92R
DAYTON         CLOUDY    73  67  81 S15       29.90S
WILMINGTON     LGT RAIN  70  70 100 S9        29.91S
HUNTINGTON     HVY RAIN  71  69  93 S5        29.97S FOG
CHARLESTON     LGT RAIN  72  70  93 S5        30.00S
PINEVILLE*     RAIN      70  69  96 MISG      30.11F
BECKLEY        LGT RAIN  68  65  90 S7        30.11R
BLUEFIELD      LGT RAIN  65  63  93 CALM      30.13S
LOGAN CO APT*  LGT RAIN  70  68  94 CALM      30.03F
$$

VAZ002-007-008-TNZ017-027-036-066-071-230300
...SOUTHWEST VIRGINIA/EAST TENNESSEE...

CITY           SKY/WX    TMP DP  RH WIND       PRES   REMARKS
WISE*          CLOUDY    68  68 100 S12       30.08F
JONESVILLE*      N/A     72  68  88 CALM      30.05R
ABINGDON*      CLOUDY    72  71  96 E5        30.08R
BRISTOL        CLOUDY    72  71  97 CALM      30.04S
MORRISTOWN*    CLOUDY    73  72  94 CALM      30.00S
SEVIERVILLE*   PTCLDY    72  72 100 CALM      29.99R
KNOXVILLE      CLOUDY    73  71  93 NW5       29.99R
LAFOLLETTE*    MOCLDY    72  72 100 NE3       30.03S FOG
OAK RIDGE      CLOUDY    74  71  91 CALM      30.00R
CROSSVILLE     CLOUDY    72  69  90 VRB7      30.02R
NASHVILLE      MOCLDY    76  73  91 S9        29.89F
$$

...KEY TO REMARKS...
VSB - VISIBILITY IN MILES
WCI - WIND CHILL INDEX
HX  - HEAT INDEX

$$




USA.gov is the U.S. government's official web portal to all federal, state and local government web resources and services.